LEGION 4

Last updated on Sun Jun 21 2026 00:02:53 GMT+0000 (Coordinated Universal Time)

1 60453U 24146B 26171.29688795 .00003587 00000+0 19653-3 0 9995 2 60453 45.0017 105.7874 0013480 324.8703 35.1285 15.16053228101348
UTC large
Height (km)
Speed (km/s)
/
Latitude / Longitude
Inclination (degrees)
Orbital Period (minutes)
Azimuth
Elevation
Range (km)
Doppler Factor

Next 0 passes for location: London (51.5072 / 0.1276)

No passes found over London.
LEGION 4